Glendale Luke AFB, AZ

6:31 PM MST on August 20, 2019 (GMT -0700)
Luke Air Force Base

Weather History for KLUF - July, 2019

Change the Weather History Date:

Sunday, July 21, 2019

  Actual Average Record
Temperature  
Mean Temperature 97 °F -  
Max Temperature 107 °F 106 °F 120 °F (2006)
Min Temperature 87 °F 76 °F 61 °F (1924)
Cooling Degree Days 32    
Growing Degree Days 47 (Base 50)    
Moisture  
Dew Point 58 °F    
Average Humidity 27    
Maximum Humidity 39    
Minimum Humidity 14    
Precipitation  
Precipitation 0.00 in - - ()
Sea Level Pressure  
Sea Level Pressure 29.77 in    
Wind  
Wind Speed 10 mph (SW)    
Max Wind Speed 24 mph    
Max Gust Speed 32 mph    
Visibility 10 miles    
Events      
Averages and records for this station are not official NWS values.
T = Trace of Precipitation, MM = Missing Value Source: NWS Daily Summary

Daily Weather History Graph

Daily Weather History Graph

Search for Another Location

Airport or City:

Astronomy

Jul. 21, 2019 Rise Set
Actual Time 5:34 AM MST 7:37 PM MST
Civil Twilight 5:06 AM MST 8:05 PM MST
Nautical Twilight 4:32 AM MST 8:39 PM MST
Astronomical Twilight 3:55 AM MST 9:15 PM MST
Moon 10:45 PM MST 9:47 AM MST
Length of Visible Light 14h 58m
Length of Day
14h 03m
Waning Gibbous, 79% of the Moon is Illuminated
Jul 21
Waning Gibbous
Jul 24
Last Quarter
Jul 31
New
Aug 7
First Quarter
Aug 15
Full

Hourly Weather History & Observations

Time (MST) Temp. Heat Index Dew Point Humidity Pressure Visibility Wind Dir Wind Speed Gust Speed Precip Events Conditions
12:58 AM 93.7 °F 91.7 °F 54.7 °F 27% 29.73 in 10.0 mi Calm Calm - N/A   Clear
1:58 AM 92.3 °F 90.2 °F 54.5 °F 28% 29.74 in 10.0 mi SW 17.3 mph - N/A   Clear
2:58 AM 88.9 °F 88.5 °F 59.9 °F 38% 29.75 in 10.0 mi SW 12.7 mph - N/A   Clear
3:58 AM 88.2 °F 87.6 °F 59.4 °F 38% 29.76 in 10.0 mi SW 10.4 mph - N/A   Clear
4:58 AM 88.0 °F 87.1 °F 58.5 °F 37% 29.77 in 10.0 mi SSW 8.1 mph - N/A   Clear
5:58 AM 87.4 °F 86.9 °F 59.4 °F 39% 29.79 in 10.0 mi SW 10.4 mph - N/A   Clear
6:58 AM 88.9 °F 88.0 °F 58.5 °F 36% 29.82 in 10.0 mi NNE 4.6 mph - N/A   Clear
7:58 AM 91.4 °F 91.0 °F 59.9 °F 35% 29.85 in 10.0 mi Calm Calm - N/A   Clear
8:58 AM 94.8 °F 96.7 °F 63.7 °F 36% 29.86 in 10.0 mi SW 10.4 mph - N/A   Clear
9:58 AM 96.4 °F 97.9 °F 62.6 °F 33% 29.86 in 10.0 mi SW 11.5 mph - N/A   Clear
10:58 AM 98.6 °F 99.4 °F 61.7 °F 29% 29.84 in 10.0 mi SW 11.5 mph - N/A   Clear
11:58 AM 100.9 °F 102.1 °F 60.8 °F 27% 29.83 in 10.0 mi SSW 15.0 mph 20.7 mph N/A   Partly Cloudy
11:59 AM 100.4 °F 101.3 °F 60.8 °F 27% 29.83 in 10.0 mi SW 13.8 mph 20.7 mph N/A   Partly Cloudy
12:58 PM 103.3 °F 103.0 °F 58.1 °F 22% 29.81 in 10.0 mi SW 15.0 mph - N/A   Scattered Clouds
1:58 PM 105.1 °F 105.7 °F 58.5 °F 22% 29.79 in 10.0 mi SW 13.8 mph 19.6 mph N/A   Partly Cloudy
2:58 PM 106.5 °F 105.3 °F 54.1 °F 18% 29.78 in 10.0 mi SW 8.1 mph 17.3 mph N/A   Clear
3:58 PM 107.1 °F 106.0 °F 54.5 °F 18% 29.74 in 10.0 mi SW 10.4 mph 17.3 mph N/A   Clear
4:17 PM 107.6 °F 106.1 °F 53.6 °F 17% 29.73 in 10.0 mi West 13.8 mph 18.4 mph N/A   Clear
4:58 PM 107.8 °F - 50.2 °F 15% 29.71 in 10.0 mi SW 4.6 mph - N/A   Clear
5:58 PM 107.8 °F - 48.2 °F 14% 29.70 in 10.0 mi West 12.7 mph - N/A   Clear
6:58 PM 106.5 °F - 47.3 °F 14% 29.71 in 10.0 mi West 11.5 mph - N/A   Clear
7:58 PM 103.6 °F - 51.8 °F 18% 29.72 in 10.0 mi WSW 12.7 mph - N/A   Clear
8:26 PM 102.2 °F - 51.8 °F 18% 29.73 in 10.0 mi SW 19.6 mph 27.6 mph N/A   Partly Cloudy
8:36 PM 98.6 °F 100.0 °F 62.6 °F 30% 29.74 in 5.0 mi SW 24.2 mph 32.2 mph N/A   Haze
8:56 PM 96.8 °F 97.1 °F 60.8 °F 30% 29.75 in 10.0 mi SW 19.6 mph - N/A   Scattered Clouds
8:58 PM 97.3 °F 97.9 °F 61.5 °F 30% 29.75 in 10.0 mi WSW 17.3 mph - N/A   Scattered Clouds
9:58 PM 97.0 °F 97.4 °F 61.2 °F 30% 29.74 in 10.0 mi WSW 16.1 mph - N/A   Clear
10:58 PM 96.6 °F 97.7 °F 61.9 °F 32% 29.75 in 10.0 mi WSW 13.8 mph - N/A   Clear
11:58 PM 96.4 °F 97.4 °F 61.7 °F 32% 29.77 in 10.0 mi SW 11.5 mph - N/A   Partly Cloudy